Simultaneous Nadir Overpasses (SNOs) Predictions

Prediction of SNOs between METOP-B and TERRA Satellite Orbit:

Table of predicted SNOs for the next 14.0 days since TLE Epoch: 10/3/2015
Index Date (METOP-B) Time (METOP-B) Lat,Lon (METOP-B) SZA (METOP-B ) Date (TERRA) Time (TERRA) Lat,Lon (TERRA) SZA (TERRA ) Distance(km) Time Diff (sec)
1 10/05/2015 18:12:15 -81.32, 134.52 90.76 10/05/2015 18:13:11 -81.33, 134.36 90.75 2.73 56
2 10/05/2015 19:02:55 81.33, -57.80 89.30 10/05/2015 19:02:37 81.33, -57.85 89.29 1.06 18
3 10/08/2015 13:46:37 -81.32,-159.26 89.69 10/08/2015 13:47:28 -81.32,-159.28 89.67 0.44 51
4 10/08/2015 14:37:17 81.32, 8.41 90.37 10/08/2015 14:36:54 81.33, 8.48 90.37 1.28 23
5 10/11/2015 09:20:58 -81.32, -93.07 88.64 10/11/2015 09:21:43 -81.31, -92.99 88.61 1.44 45
6 10/11/2015 10:11:38 81.32, 74.59 91.42 10/11/2015 10:11:09 81.32, 74.75 91.43 2.73 29
7 10/14/2015 04:55:19 -81.32, -26.53 87.55 10/14/2015 04:55:57 -81.32, -26.38 87.51 2.57 38
8 10/14/2015 05:45:58 81.33, 141.51 92.56 10/14/2015 05:45:23 81.33, 141.33 92.52 3.06 35
9 10/17/2015 00:29:40 -81.32, 39.98 86.49 10/17/2015 00:30:10 -81.33, 40.17 86.45 3.27 30




NCC Satellite Simultaneous Nadir Overpasses (SNOs) Prediction Service
